S-NET B

Last updated on Sat Jun 20 2026 00:03:20 GMT+0000 (Coordinated Universal Time)

1 43187U 18014H 26170.71653797 .00003701 00000+0 19240-3 0 9997 2 43187 97.5363 75.4778 0009195 17.3008 342.8537 15.16662650459142
UTC large
Height (km)
Speed (km/s)
/
Latitude / Longitude
Inclination (degrees)
Orbital Period (minutes)
Azimuth
Elevation
Range (km)
Doppler Factor

Next 0 passes for location: London (51.5072 / 0.1276)

Sorry there are no passes over London.
S-NET B